Overview Statistics Trail Chart Weather Telemetry Raw packets
 

This is the latest recevied weather packets stored in our database for station/object W5LND-10. If no packets are shown the sender has not sent any weather packets the latest 10 day(s).

<< 7 8 9 10 11 12 13 >>
Time Temp. Humidity Pressure Rain* Wind** Luminosity Snow
1788556225 33.89° C 35% 1003.8 hPa 0 mm - 287 W/m² -
1788555925 33.89° C 35% 1003.9 hPa 0 mm - 278 W/m² -
1788555625 33.89° C 34% 1004.1 hPa 0 mm - 301 W/m² -
1788555325 33.33° C 33% 1004.2 hPa 0 mm - 260 W/m² -
1788555025 33.33° C 35% 1004.4 hPa 0 mm - 241 W/m² -
1788554725 32.78° C 36% 1004.5 hPa 0 mm - 216 W/m² -
1788554425 33.33° C 36% 1004.5 hPa 0 mm - 200 W/m² -
1788554125 34.44° C 33% 1004.6 hPa 0 mm - 214 W/m² -
1788553825 35° C 36% 1004.6 hPa 0 mm - 237 W/m² -
1788553525 35.56° C 36% 1004.8 hPa 0 mm - 237 W/m² -
1788553225 36.11° C 35% 1004.6 hPa 0 mm - 258 W/m² -
1788552925 36.11° C 34% 1004.6 hPa 0 mm - 287 W/m² -
1788552625 36.67° C 33% 1004.7 hPa 0 mm - 274 W/m² -
1788552325 37.22° C 31% 1004.7 hPa 0 mm - 403 W/m² -
1788552025 37.22° C 31% 1004.7 hPa 0 mm - 294 W/m² -
1788551725 36.67° C 32% 1004.7 hPa 0 mm - 301 W/m² -
1788551425 37.22° C 32% 1004.8 hPa 0 mm - 294 W/m² -
1788551125 37.22° C 32% 1004.8 hPa 0 mm - 264 W/m² -
1788550825 37.22° C 31% 1004.9 hPa 0 mm - 294 W/m² -
1788550525 37.22° C 32% 1005 hPa 0 mm - 285 W/m² -
1788550225 37.78° C 31% 1005 hPa 0 mm - 251 W/m² -
1788549925 37.78° C 31% 1005.1 hPa 0 mm - 241 W/m² -
1788549625 38.33° C 30% 1005.2 hPa 0 mm - 243 W/m² -
1788549325 38.89° C 30% 1005.2 hPa 0 mm - 294 W/m² -
1788549025 38.89° C 30% 1005.3 hPa 0 mm - 1079 W/m² -

* Rain latest hour (hover to see other rain measurements)
** Current wind speed in m/s (hover to see current wind gust speed)